Location: Crescent
(42.8242°N, 73.7329°W)
Time: 20:29:57
(UTC+00:00)

Transit 2A - Pass Details

Date: 06 November 2024
Orbit: 593 x 956 km, 66.7° (Epoch: 14 December)

Event Time Altitude Azimuth Distance (km) Brightness Sun altitude
Rises 09:21:43 0° 165° (SSE) 3,551 9.6 -24.9°
Reaches altitude 10° 09:24:52 10° 149° (SSE) 2,647 9.1 -24.3°
Maximum altitude 09:29:14 20° 104° (ESE) 2,038 9.0 -23.5°
Drops below altitude 10° 09:33:39 10° 60° (ENE) 2,687 9.6 -22.7°
Sets 09:36:51 0° 45° (NE) 3,622 10.1 -22.1°
